,,PA_Meas_PMT16A,,PR_Meas_QMR101_102,,RH_Meas_QMH101,,SR_Meas_QMS101,,TA_Meas_QMH101,,GenWind,,GenWind,
time,status,PA,status,PR,status,RH,status,SR,status,TA,status,DirAvg,status,SpdAvg,
2011-11-22, 00:00:04,VALID,916.887,VALID,0,VALID,96.8479,VALID,0,VALID,20.2668,VALID,146,VALID,0.565234,
2011-11-22, 00:01:04,VALID,916.846,VALID,0,VALID,96.8631,VALID,0,VALID,20.2879,VALID,146,VALID,0.817578,
2011-11-22, 00:02:04,VALID,916.834,VALID,0,VALID,96.9317,VALID,0,VALID,20.2863,VALID,147,VALID,0.469531,
2011-11-22, 00:03:04,VALID,916.823,VALID,0,VALID,96.9927,VALID,0,VALID,20.3253,VALID,147,VALID,0.00585938,
2011-11-22, 00:04:04,VALID,916.815,VALID,0,VALID,97.0232,VALID,0,VALID,20.3643,VALID,147,VALID,0,
2011-11-22, 00:05:04,VALID,916.819,VALID,0,VALID,96.9698,VALID,0,VALID,20.3838,VALID,146,VALID,0,
2011-11-22, 00:06:04,VALID,916.816,VALID,0,VALID,96.947,VALID,0,VALID,20.4049,VALID,147,VALID,0.265625,
2011-11-22, 00:07:04,VALID,916.795,VALID,0,VALID,96.9241,VALID,0,VALID,20.3854,VALID,146,VALID,0.0800781,
2011-11-22, 00:08:04,VALID,916.77,VALID,0,VALID,96.947,VALID,0,VALID,20.3238,VALID,147,VALID,0.378516,
2011-11-22, 00:09:04,VALID,916.766,VALID,0,VALID,96.9622,VALID,0,VALID,20.3253,VALID,147,VALID,0.486328,
2011-11-22, 00:10:04,VALID,916.74,VALID,0,VALID,96.9546,VALID,0,VALID,20.3043,VALID,147,VALID,0.358594,
2011-11-22, 00:11:04,VALID,916.734,VALID,0,VALID,96.9927,VALID,0,VALID,20.3448,VALID,146,VALID,0.458984,
2011-11-22, 00:12:04,VALID,916.693,VALID,0,VALID,97.0308,VALID,0,VALID,20.3448,VALID,146,VALID,0.403125,
2011-11-22, 00:13:04,VALID,916.675,VALID,0,VALID,97.0385,VALID,0,VALID,20.3222,VALID,146,VALID,0.415234,
2011-11-22, 00:14:04,VALID,916.657,VALID,0,VALID,97.0308,VALID,0,VALID,20.3222,VALID,146,VALID,0.333594,
2011-11-22, 00:15:04,VALID,916.635,VALID,0,VALID,97.0308,VALID,0,VALID,20.3643,VALID,147,VALID,0.316797,
2011-11-22, 00:16:04,VALID,916.585,VALID,0,VALID,97.0537,VALID,0,VALID,20.3823,VALID,146,VALID,0.314453,
2011-11-22, 00:17:04,VALID,916.599,VALID,0,VALID,97.0308,VALID,0,VALID,20.4244,VALID,146,VALID,0.621094,
2011-11-22, 00:18:04,VALID,916.563,VALID,0,VALID,96.9927,VALID,0,VALID,20.3854,VALID,147,VALID,0.717969,
2011-11-22, 00:19:04,VALID,916.539,VALID,0,VALID,97.0385,VALID,0,VALID,20.4244,VALID,147,VALID,0.740625,
2011-11-22, 00:20:04,VALID,916.52,VALID,0,VALID,97.0156,VALID,0,VALID,20.4033,VALID,147,VALID,0.8625,
2011-11-22, 00:21:04,VALID,916.476,VALID,0,VALID,96.9927,VALID,0,VALID,20.4228,VALID,146,VALID,0.910547,
2011-11-22, 00:22:04,VALID,916.478,VALID,0,VALID,96.9241,VALID,0,VALID,20.4829,VALID,147,VALID,0.936328,
2011-11-22, 00:23:04,VALID,916.438,VALID,0,VALID,96.8707,VALID,0,VALID,20.5414,VALID,146,VALID,0.858594,
2011-11-22, 00:24:04,VALID,916.408,VALID,0,VALID,96.7869,VALID,0,VALID,20.5188,VALID,146,VALID,0.875,
2011-11-22, 00:25:04,VALID,916.376,VALID,0,VALID,96.7259,VALID,0,VALID,20.5414,VALID,146,VALID,0.937109,
2011-11-22, 00:26:04,VALID,916.353,VALID,0,VALID,96.6649,VALID,0,VALID,20.5609,VALID,146,VALID,0.876172,
2011-11-22, 00:27:04,VALID,916.362,VALID,0,VALID,96.642,VALID,0,VALID,20.5399,VALID,146,VALID,0.828125,
2011-11-22, 00:28:04,VALID,916.344,VALID,0,VALID,96.5582,VALID,0,VALID,20.5594,VALID,146,VALID,0.694531,
2011-11-22, 00:29:04,VALID,916.324,VALID,0,VALID,96.5048,VALID,0,VALID,20.5414,VALID,176,VALID,1.07539,
2011-11-22, 00:30:04,VALID,916.312,VALID,0,VALID,96.4743,VALID,0,VALID,20.4603,VALID,180,VALID,0.426953,
2011-11-22, 00:31:04,VALID,916.292,VALID,0,VALID,96.4438,VALID,0,VALID,20.4018,VALID,180,VALID,1.08125,
2011-11-22, 00:32:04,VALID,916.279,VALID,0,VALID,96.4819,VALID,0,VALID,20.4049,VALID,167,VALID,1.21289,
2011-11-22, 00:33:04,VALID,916.262,VALID,0,VALID,96.5124,VALID,0,VALID,20.3433,VALID,167,VALID,1.03633,
2011-11-22, 00:34:04,VALID,916.224,VALID,0,VALID,96.5658,VALID,0,VALID,20.3464,VALID,170,VALID,1.23945,
2011-11-22, 00:35:04,VALID,916.228,VALID,0,VALID,96.5963,VALID,0,VALID,20.3269,VALID,158,VALID,0.935547,
2011-11-22, 00:36:04,VALID,916.222,VALID,0,VALID,96.642,VALID,0,VALID,20.3074,VALID,158,VALID,0.691016,
2011-11-22, 00:37:04,VALID,916.237,VALID,0,VALID,96.6878,VALID,0,VALID,20.2863,VALID,158,VALID,0.560547,
2011-11-22, 00:38:04,VALID,916.206,VALID,0,VALID,96.6954,VALID,0,VALID,20.2684,VALID,158,VALID,0.528516,
2011-11-22, 00:39:04,VALID,916.156,VALID,0,VALID,96.7488,VALID,0,VALID,20.2668,VALID,139,VALID,1.14961,
2011-11-22, 00:40:04,VALID,916.137,VALID,0,VALID,96.7793,VALID,0,VALID,20.2668,VALID,142,VALID,0.589844,
2011-11-22, 00:41:04,VALID,916.103,VALID,0,VALID,96.8479,VALID,0,VALID,20.2473,VALID,142,VALID,0.613672,
2011-11-22, 00:42:04,VALID,916.097,VALID,0,VALID,96.8707,VALID,0,VALID,20.2458,VALID,142,VALID,0.735937,
2011-11-22, 00:43:04,VALID,916.093,VALID,0,VALID,96.9089,VALID,0,VALID,20.2473,VALID,150,VALID,0.791016,
2011-11-22, 00:44:04,VALID,916.094,VALID,0,VALID,96.9089,VALID,0,VALID,20.2668,VALID,142,VALID,0.800391,
2011-11-22, 00:45:04,VALID,916.053,VALID,0,VALID,96.9317,VALID,0,VALID,20.2879,VALID,142,VALID,0.782812,
2011-11-22, 00:46:04,VALID,916.04,VALID,0,VALID,96.9698,VALID,0,VALID,20.2668,VALID,142,VALID,0.730078,
2011-11-22, 00:47:04,VALID,916.003,VALID,0,VALID,96.9622,VALID,0,VALID,20.2668,VALID,156,VALID,1.03008,
2011-11-22, 00:48:04,VALID,915.992,VALID,0,VALID,97.0003,VALID,0,VALID,20.2879,VALID,157,VALID,0.376563,
2011-11-22, 00:49:04,VALID,915.992,VALID,0,VALID,97.0232,VALID,0,VALID,20.2863,VALID,160,VALID,0.720703,
2011-11-22, 00:50:04,VALID,916.006,VALID,0,VALID,97.0156,VALID,0,VALID,20.2668,VALID,160,VALID,0.554297,
2011-11-22, 00:51:04,VALID,915.995,VALID,0,VALID,97.0308,VALID,0,VALID,20.2879,VALID,158,VALID,1.06016,
2011-11-22, 00:52:04,VALID,916.008,VALID,0,VALID,97.0461,VALID,0,VALID,20.2473,VALID,138,VALID,0.716406,
2011-11-22, 00:53:04,VALID,916.002,VALID,0,VALID,97.069,VALID,0,VALID,20.2489,VALID,137,VALID,0.787891,
2011-11-22, 00:54:04,VALID,915.982,VALID,0,VALID,97.0613,VALID,0,VALID,20.2684,VALID,138,VALID,0.341797,
2011-11-22, 00:55:04,VALID,915.97,VALID,0,VALID,97.0994,VALID,0,VALID,20.2879,VALID,138,VALID,0.780859,
2011-11-22, 00:56:04,VALID,915.978,VALID,0,VALID,97.1376,VALID,0,VALID,20.2863,VALID,138,VALID,0.928906,
2011-11-22, 00:57:04,VALID,915.981,VALID,0,VALID,97.1452,VALID,0,VALID,20.2863,VALID,138,VALID,0.735156,
2011-11-22, 00:58:04,VALID,915.957,VALID,0,VALID,97.1452,VALID,0,VALID,20.3074,VALID,149,VALID,1.08516,
2011-11-22, 00:59:04,VALID,915.919,VALID,0,VALID,97.1604,VALID,0,VALID,20.3074,VALID,147,VALID,0.772656,
2011-11-22, 01:00:04,VALID,915.897,VALID,0,VALID,97.1452,VALID,0,VALID,20.3074,VALID,147,VALID,1.03203,
2011-11-22, 01:01:04,VALID,915.856,VALID,0,VALID,97.1528,VALID,0,VALID,20.2863,VALID,162,VALID,0.929688,
2011-11-22, 01:02:04,VALID,915.847,VALID,0,VALID,97.1604,VALID,0,VALID,20.3269,VALID,147,VALID,0.625,
2011-11-22, 01:03:04,VALID,915.813,VALID,0,VALID,97.1528,VALID,0,VALID,20.3058,VALID,160,VALID,0.552734,
2011-11-22, 01:04:04,VALID,915.828,VALID,0,VALID,97.1604,VALID,0,VALID,20.3058,VALID,167,VALID,0.483594,
2011-11-22, 01:05:04,VALID,915.763,VALID,0,VALID,97.1528,VALID,0,VALID,20.3058,VALID,147,VALID,0.995703,
2011-11-22, 01:06:04,VALID,915.75,VALID,0,VALID,97.1604,VALID,0,VALID,20.3269,VALID,134,VALID,0.805859,
2011-11-22, 01:07:04,VALID,915.736,VALID,0,VALID,97.1452,VALID,0,VALID,20.2863,VALID,136,VALID,0.494141,
2011-11-22, 01:08:04,VALID,915.705,VALID,0,VALID,97.1452,VALID,0,VALID,20.3269,VALID,143,VALID,0.619922,
2011-11-22, 01:09:04,VALID,915.689,VALID,0,VALID,97.1376,VALID,0,VALID,20.3269,VALID,143,VALID,0.728125,
2011-11-22, 01:10:04,VALID,915.663,VALID,0,VALID,97.1223,VALID,0,VALID,20.3058,VALID,165,VALID,1.6375,
2011-11-22, 01:11:04,VALID,915.657,VALID,0,VALID,97.1223,VALID,0,VALID,20.3058,VALID,173,VALID,1.12031,
2011-11-22, 01:12:04,VALID,915.65,VALID,0,VALID,97.1223,VALID,0,VALID,20.3253,VALID,168,VALID,1.16016,
2011-11-22, 01:13:04,VALID,915.633,VALID,0,VALID,97.0918,VALID,0,VALID,20.3269,VALID,157,VALID,1.08125,
2011-11-22, 01:14:04,VALID,915.579,VALID,0,VALID,97.0842,VALID,0,VALID,20.2863,VALID,166,VALID,1.12578,
2011-11-22, 01:15:04,VALID,915.583,VALID,0,VALID,97.0766,VALID,0,VALID,20.2863,VALID,161,VALID,1.23477,
2011-11-22, 01:16:04,VALID,915.548,VALID,0,VALID,97.1071,VALID,0,VALID,20.3058,VALID,168,VALID,0.542969,
2011-11-22, 01:17:04,VALID,915.527,VALID,0,VALID,97.0766,VALID,0,VALID,20.3058,VALID,136,VALID,0.646484,
2011-11-22, 01:18:04,VALID,915.531,VALID,0,VALID,97.0537,VALID,0,VALID,20.2863,VALID,146,VALID,0.679688,
2011-11-22, 01:19:04,VALID,915.515,VALID,0,VALID,97.0308,VALID,0,VALID,20.3074,VALID,146,VALID,0.795313,
2011-11-22, 01:20:04,VALID,915.504,VALID,0,VALID,97.0232,VALID,0,VALID,20.2863,VALID,146,VALID,1.325,
2011-11-22, 01:21:04,VALID,915.478,VALID,0,VALID,97.0156,VALID,0.107441,VALID,20.2668,VALID,143,VALID,0.748047,
2011-11-22, 01:22:04,VALID,915.473,VALID,0,VALID,97.0232,VALID,0,VALID,20.2863,VALID,133,VALID,1.47109,
2011-11-22, 01:23:04,VALID,915.46,VALID,0,VALID,96.9622,VALID,0,VALID,20.2863,VALID,122,VALID,1.36992,
2011-11-22, 01:24:04,VALID,915.456,VALID,0,VALID,96.9622,VALID,0.107441,VALID,20.2863,VALID,136,VALID,1.21445,
2011-11-22, 01:25:04,VALID,915.411,VALID,0,VALID,96.9165,VALID,0.107441,VALID,20.2863,VALID,140,VALID,1.43906,
2011-11-22, 01:26:04,VALID,915.401,VALID,0,VALID,96.9089,VALID,0.107441,VALID,20.3058,VALID,115,VALID,1.76758,
2011-11-22, 01:27:04,VALID,915.419,VALID,0,VALID,96.9012,VALID,0.107441,VALID,20.3058,VALID,117,VALID,1.15039,
2011-11-22, 01:28:04,VALID,915.381,VALID,0,VALID,96.8631,VALID,0,VALID,20.2863,VALID,129,VALID,1.5918,
2011-11-22, 01:29:04,VALID,915.352,VALID,0,VALID,96.8326,VALID,0.107441,VALID,20.3269,VALID,124,VALID,1.6875,
2011-11-22, 01:30:04,VALID,915.364,VALID,0,VALID,96.825,VALID,0,VALID,20.3058,VALID,116,VALID,1.45195,
2011-11-22, 01:31:04,VALID,915.354,VALID,0,VALID,96.8021,VALID,0,VALID,20.3253,VALID,129,VALID,1.33516,
2011-11-22, 01:32:04,VALID,915.342,VALID,0,VALID,96.7488,VALID,0,VALID,20.3253,VALID,125,VALID,1.82305,
2011-11-22, 01:33:04,VALID,915.352,VALID,0,VALID,96.6954,VALID,0,VALID,20.3854,VALID,131,VALID,1.58516,
2011-11-22, 01:34:04,VALID,915.35,VALID,0,VALID,96.6039,VALID,0.107441,VALID,20.3838,VALID,85,VALID,0.979688,
2011-11-22, 01:35:04,VALID,915.335,VALID,0,VALID,96.5277,VALID,0,VALID,20.4033,VALID,102,VALID,1.86484,
2011-11-22, 01:36:04,VALID,915.306,VALID,0,VALID,96.4286,VALID,0,VALID,20.4228,VALID,127,VALID,2.06133,
2011-11-22, 01:37:04,VALID,915.311,VALID,0,VALID,96.3371,VALID,0,VALID,20.4423,VALID,96,VALID,0.805859,
2011-11-22, 01:38:04,VALID,915.289,VALID,0,VALID,96.2685,VALID,0,VALID,20.4829,VALID,128,VALID,1.30664,
2011-11-22, 01:39:04,VALID,915.318,VALID,0,VALID,96.177,VALID,0,VALID,20.4618,VALID,135,VALID,2.23555,
2011-11-22, 01:40:04,VALID,915.297,VALID,0,VALID,96.0779,VALID,0,VALID,20.5219,VALID,129,VALID,1.79922,
2011-11-22, 01:41:04,VALID,915.263,VALID,0,VALID,95.9941,VALID,0,VALID,20.4813,VALID,115,VALID,1.36523,
2011-11-22, 01:42:04,VALID,915.283,VALID,0,VALID,95.9026,VALID,0,VALID,20.4813,VALID,121,VALID,1.47109,
2011-11-22, 01:43:04,VALID,915.237,VALID,0,VALID,95.8187,VALID,0.107441,VALID,20.4829,VALID,125,VALID,1.43984,
2011-11-22, 01:44:04,VALID,915.249,VALID,0,VALID,95.7958,VALID,0,VALID,20.4829,VALID,133,VALID,1.72148,
2011-11-22, 01:45:04,VALID,915.261,VALID,0,VALID,95.7501,VALID,0,VALID,20.4813,VALID,162,VALID,2.22695,
2011-11-22, 01:46:04,VALID,915.223,VALID,0,VALID,95.6662,VALID,0,VALID,20.5009,VALID,115,VALID,1.59023,
2011-11-22, 01:47:04,VALID,915.216,VALID,0,VALID,95.5748,VALID,0,VALID,20.5204,VALID,112,VALID,1.75508,
2011-11-22, 01:48:04,VALID,915.205,VALID,0,VALID,95.4223,VALID,0,VALID,20.582,VALID,134,VALID,1.18711,
2011-11-22, 01:49:04,VALID,915.209,VALID,0,VALID,95.2927,VALID,0,VALID,20.5383,VALID,77,VALID,2.09141,
2011-11-22, 01:50:04,VALID,915.225,VALID,0,VALID,95.1707,VALID,0,VALID,20.5773,VALID,119,VALID,1.375,
2011-11-22, 01:51:04,VALID,915.231,VALID,0,VALID,95.0335,VALID,0,VALID,20.5999,VALID,121,VALID,3.16055,
2011-11-22, 01:52:04,VALID,915.216,VALID,0,VALID,94.9954,VALID,0,VALID,20.5578,VALID,129,VALID,1.20117,
2011-11-22, 01:53:04,VALID,915.224,VALID,0,VALID,94.9496,VALID,0.107441,VALID,20.6647,VALID,111,VALID,1.23164,
2011-11-22, 01:54:04,VALID,915.221,VALID,0,VALID,95.0335,VALID,0,VALID,20.5414,VALID,125,VALID,1.53672,
2011-11-22, 01:55:04,VALID,915.21,VALID,0,VALID,95.1021,VALID,0,VALID,20.4587,VALID,136,VALID,1.81953,
2011-11-22, 01:56:04,VALID,915.227,VALID,0,VALID,95.1326,VALID,0,VALID,20.4587,VALID,147,VALID,0.890234,
2011-11-22, 01:57:04,VALID,915.182,VALID,0,VALID,95.1783,VALID,0,VALID,20.4377,VALID,177,VALID,1.01211,
2011-11-22, 01:58:04,VALID,915.179,VALID,0,VALID,95.2851,VALID,0,VALID,20.4813,VALID,149,VALID,0.677344,
2011-11-22, 01:59:04,VALID,915.168,VALID,0,VALID,95.3003,VALID,0,VALID,20.4408,VALID,150,VALID,0.714844,
2011-11-22, 02:00:04,VALID,915.134,VALID,0,VALID,95.3918,VALID,0,VALID,20.5235,VALID,114,VALID,1.98281,
2011-11-22, 02:01:04,VALID,915.122,VALID,0,VALID,95.3994,VALID,0,VALID,20.4798,VALID,183,VALID,1.38867,
2011-11-22, 02:02:04,VALID,915.111,VALID,0,VALID,95.3918,VALID,0,VALID,20.5219,VALID,143,VALID,2.01289,
2011-11-22, 02:03:04,VALID,915.099,VALID,0,VALID,95.3384,VALID,0,VALID,20.5204,VALID,126,VALID,0.863281,
2011-11-22, 02:04:04,VALID,915.113,VALID,0,VALID,95.3461,VALID,0.107441,VALID,20.5414,VALID,138,VALID,1.25508,
2011-11-22, 02:05:04,VALID,915.081,VALID,0,VALID,95.3766,VALID,0,VALID,20.5009,VALID,151,VALID,1.66602,
2011-11-22, 02:06:04,VALID,915.061,VALID,0,VALID,95.3613,VALID,0,VALID,20.5609,VALID,111,VALID,1.66484,
2011-11-22, 02:07:04,VALID,915.009,VALID,0,VALID,95.2698,VALID,0,VALID,20.5399,VALID,133,VALID,1.4207,
2011-11-22, 02:08:04,VALID,915.031,VALID,0,VALID,95.2012,VALID,0,VALID,20.5399,VALID,125,VALID,2.73008,
2011-11-22, 02:09:04,VALID,915.018,VALID,0,VALID,95.1174,VALID,0,VALID,20.5984,VALID,108,VALID,1.85156,
2011-11-22, 02:10:04,VALID,914.979,VALID,0,VALID,95.0335,VALID,0,VALID,20.6194,VALID,143,VALID,1.50039,
2011-11-22, 02:11:04,VALID,914.999,VALID,0,VALID,94.9878,VALID,0,VALID,20.5984,VALID,145,VALID,1.77813,
2011-11-22, 02:12:04,VALID,914.998,VALID,0,VALID,94.9115,VALID,0,VALID,20.6194,VALID,153,VALID,1.28477,
2011-11-22, 02:13:04,VALID,915.011,VALID,0,VALID,94.9115,VALID,0,VALID,20.5594,VALID,87,VALID,1.07266,
2011-11-22, 02:14:04,VALID,915.01,VALID,0,VALID,94.9725,VALID,0,VALID,20.5789,VALID,106,VALID,0.765234,
2011-11-22, 02:15:04,VALID,914.989,VALID,0,VALID,95.0106,VALID,0,VALID,20.5594,VALID,106,VALID,0.564844,
2011-11-22, 02:16:04,VALID,915.017,VALID,0,VALID,95.0259,VALID,0,VALID,20.5399,VALID,129,VALID,0.580078,
2011-11-22, 02:17:04,VALID,914.997,VALID,0,VALID,95.0488,VALID,0,VALID,20.5204,VALID,95,VALID,0.865625,
2011-11-22, 02:18:04,VALID,914.96,VALID,0,VALID,95.1097,VALID,0,VALID,20.5204,VALID,95,VALID,0.704297,
2011-11-22, 02:19:04,VALID,915.004,VALID,0,VALID,95.1631,VALID,0,VALID,20.5204,VALID,37,VALID,1.16445,
2011-11-22, 02:20:04,VALID,914.993,VALID,0,VALID,95.1555,VALID,0.107441,VALID,20.5204,VALID,51,VALID,0.737891,
2011-11-22, 02:21:04,VALID,914.943,VALID,0,VALID,95.1783,VALID,0.107441,VALID,20.5399,VALID,33,VALID,0.647656,
2011-11-22, 02:22:04,VALID,914.933,VALID,0,VALID,95.2088,VALID,0.107441,VALID,20.5009,VALID,82,VALID,0.744141,
2011-11-22, 02:23:04,VALID,914.914,VALID,0,VALID,95.2393,VALID,0.107441,VALID,20.5009,VALID,83,VALID,0.443359,
2011-11-22, 02:24:04,VALID,914.907,VALID,0,VALID,95.2851,VALID,0,VALID,20.4813,VALID,83,VALID,0.271094,
2011-11-22, 02:25:04,VALID,914.897,VALID,0,VALID,95.2851,VALID,0.107441,VALID,20.4813,VALID,83,VALID,0.437891,
2011-11-22, 02:26:04,VALID,914.909,VALID,0,VALID,95.3308,VALID,0.107441,VALID,20.4618,VALID,82,VALID,0.439453,
2011-11-22, 02:27:04,VALID,914.864,VALID,0,VALID,95.3766,VALID,0,VALID,20.4033,VALID,83,VALID,0.673047,
2011-11-22, 02:28:04,VALID,914.843,VALID,0,VALID,95.4299,VALID,0,VALID,20.3838,VALID,82,VALID,1.18594,
2011-11-22, 02:29:04,VALID,914.826,VALID,0,VALID,95.5443,VALID,0,VALID,20.3838,VALID,82,VALID,1.13164,
2011-11-22, 02:30:04,VALID,914.824,VALID,0,VALID,95.59,VALID,0.107441,VALID,20.3253,VALID,83,VALID,0.878125,
2011-11-22, 02:31:04,VALID,914.804,VALID,0,VALID,95.6129,VALID,0,VALID,20.3253,VALID,111,VALID,1.2793,
2011-11-22, 02:32:04,VALID,914.78,VALID,0,VALID,95.6434,VALID,0.107441,VALID,20.3058,VALID,123,VALID,1.05547,
2011-11-22, 02:33:04,VALID,914.789,VALID,0,VALID,95.6662,VALID,0,VALID,20.3253,VALID,123,VALID,1.21406,
2011-11-22, 02:34:04,VALID,914.775,VALID,0,VALID,95.6739,VALID,0.107441,VALID,20.3253,VALID,123,VALID,0.796094,
2011-11-22, 02:35:04,VALID,914.762,VALID,0,VALID,95.6891,VALID,0,VALID,20.3464,VALID,123,VALID,0.961328,
2011-11-22, 02:36:04,VALID,914.734,VALID,0,VALID,95.6739,VALID,0.107441,VALID,20.3058,VALID,122,VALID,0.967969,
2011-11-22, 02:37:04,VALID,914.748,VALID,0,VALID,95.6662,VALID,0,VALID,20.3058,VALID,123,VALID,0.598047,
2011-11-22, 02:38:04,VALID,914.718,VALID,0,VALID,95.6586,VALID,0.107441,VALID,20.3269,VALID,123,VALID,0.666016,
2011-11-22, 02:39:04,VALID,914.717,VALID,0,VALID,95.6662,VALID,0,VALID,20.2863,VALID,123,VALID,0.522266,
2011-11-22, 02:40:04,VALID,914.732,VALID,0,VALID,95.6662,VALID,0,VALID,20.3074,VALID,122,VALID,0.942187,
2011-11-22, 02:41:04,VALID,914.723,VALID,0,VALID,95.6739,VALID,0,VALID,20.2879,VALID,123,VALID,0.758594,
2011-11-22, 02:42:04,VALID,914.737,VALID,0,VALID,95.6891,VALID,0,VALID,20.2684,VALID,116,VALID,0.899219,
2011-11-22, 02:43:04,VALID,914.697,VALID,0,VALID,95.7044,VALID,0,VALID,20.2278,VALID,108,VALID,0.653906,
2011-11-22, 02:44:04,VALID,914.678,VALID,0,VALID,95.7349,VALID,0,VALID,20.2278,VALID,129,VALID,1.46836,
2011-11-22, 02:45:04,VALID,914.704,VALID,0,VALID,95.7196,VALID,0,VALID,20.2278,VALID,101,VALID,0.739453,
2011-11-22, 02:46:04,VALID,914.677,VALID,0,VALID,95.7272,VALID,0,VALID,20.2278,VALID,123,VALID,0.456641,
2011-11-22, 02:47:04,VALID,914.678,VALID,0,VALID,95.7044,VALID,0,VALID,20.2278,VALID,123,VALID,0.802344,
2011-11-22, 02:48:04,VALID,914.699,VALID,0,VALID,95.6739,VALID,0,VALID,20.2278,VALID,123,VALID,0.533984,
2011-11-22, 02:49:04,VALID,914.708,VALID,0,VALID,95.6586,VALID,0.107441,VALID,20.2083,VALID,123,VALID,0.0757812,
2011-11-22, 02:50:04,VALID,914.709,VALID,0,VALID,95.6967,VALID,0.107441,VALID,20.2083,VALID,123,VALID,0,
2011-11-22, 02:51:04,VALID,914.72,VALID,0,VALID,95.7044,VALID,0,VALID,20.1888,VALID,123,VALID,0.0140625,
2011-11-22, 02:52:04,VALID,914.72,VALID,0,VALID,95.7044,VALID,0,VALID,20.1693,VALID,123,VALID,0,
2011-11-22, 02:53:04,VALID,914.717,VALID,0,VALID,95.7958,VALID,0.107441,VALID,20.1693,VALID,123,VALID,0,
2011-11-22, 02:54:04,VALID,914.733,VALID,0,VALID,95.8263,VALID,0,VALID,20.1693,VALID,123,VALID,0,
2011-11-22, 02:55:04,VALID,914.714,VALID,0,VALID,95.8492,VALID,0,VALID,20.1888,VALID,123,VALID,0,
2011-11-22, 02:56:04,VALID,914.699,VALID,0,VALID,95.8645,VALID,0,VALID,20.1693,VALID,123,VALID,0,
2011-11-22, 02:57:04,VALID,914.676,VALID,0,VALID,95.834,VALID,0,VALID,20.1708,VALID,123,VALID,0.0605469,
2011-11-22, 02:58:04,VALID,914.67,VALID,0,VALID,95.8416,VALID,0.107441,VALID,20.1303,VALID,123,VALID,0.114453,
2011-11-22, 02:59:04,VALID,914.664,VALID,0,VALID,95.9178,VALID,0,VALID,20.1303,VALID,123,VALID,0.829297,
2011-11-22, 03:00:04,VALID,914.661,VALID,0,VALID,95.9483,VALID,0.107441,VALID,20.0913,VALID,123,VALID,0.453906,
2011-11-22, 03:01:04,VALID,914.665,VALID,0,VALID,95.9559,VALID,0.107441,VALID,20.0913,VALID,123,VALID,0,
2011-11-22, 03:02:04,VALID,914.664,VALID,0,VALID,95.9788,VALID,0,VALID,20.0718,VALID,123,VALID,0,
2011-11-22, 03:03:04,VALID,914.667,VALID,0,VALID,96.0322,VALID,0.107441,VALID,20.0718,VALID,123,VALID,0.028125,
2011-11-22, 03:04:04,VALID,914.678,VALID,0,VALID,96.0703,VALID,0,VALID,20.0718,VALID,123,VALID,0.146094,
2011-11-22, 03:05:04,VALID,914.685,VALID,0,VALID,96.0703,VALID,0.107441,VALID,20.0718,VALID,123,VALID,0.212109,
2011-11-22, 03:06:04,VALID,914.671,VALID,0,VALID,96.116,VALID,0.107441,VALID,20.0913,VALID,123,VALID,0.305469,
2011-11-22, 03:07:04,VALID,914.696,VALID,0,VALID,96.1313,VALID,0.107441,VALID,20.1108,VALID,123,VALID,0.309766,
2011-11-22, 03:08:04,VALID,914.691,VALID,0,VALID,96.1999,VALID,0,VALID,20.1303,VALID,123,VALID,0.409375,
2011-11-22, 03:09:04,VALID,914.707,VALID,0,VALID,96.2228,VALID,0,VALID,20.1108,VALID,123,VALID,0.561719,
2011-11-22, 03:10:04,VALID,914.68,VALID,0,VALID,96.2228,VALID,0.107441,VALID,20.0913,VALID,123,VALID,0.650781,
2011-11-22, 03:11:04,VALID,914.708,VALID,0,VALID,96.238,VALID,0,VALID,20.1123,VALID,123,VALID,0.373437,
2011-11-22, 03:12:04,VALID,914.725,VALID,0,VALID,96.2456,VALID,0,VALID,20.1108,VALID,123,VALID,0.00585938,
2011-11-22, 03:13:04,VALID,914.739,VALID,0,VALID,96.238,VALID,0,VALID,20.1108,VALID,123,VALID,0,
2011-11-22, 03:14:04,VALID,914.745,VALID,0,VALID,96.1618,VALID,0,VALID,20.1108,VALID,123,VALID,0,
2011-11-22, 03:15:04,VALID,914.781,VALID,0,VALID,96.1389,VALID,0.107441,VALID,20.0913,VALID,123,VALID,0,
2011-11-22, 03:16:04,VALID,914.744,VALID,0,VALID,96.177,VALID,0.107441,VALID,20.0718,VALID,123,VALID,0,
2011-11-22, 03:17:04,VALID,914.783,VALID,0,VALID,96.2075,VALID,0.107441,VALID,20.0913,VALID,123,VALID,0.0523437,
2011-11-22, 03:18:04,VALID,914.765,VALID,0,VALID,96.2228,VALID,0,VALID,20.1108,VALID,123,VALID,0.489453,
2011-11-22, 03:19:04,VALID,914.762,VALID,0,VALID,96.1694,VALID,0,VALID,20.1303,VALID,123,VALID,0.418359,
2011-11-22, 03:20:04,VALID,914.791,VALID,0,VALID,96.177,VALID,0.107441,VALID,20.1498,VALID,124,VALID,0.438672,
2011-11-22, 03:21:04,VALID,914.78,VALID,0,VALID,96.1313,VALID,0,VALID,20.1903,VALID,123,VALID,0.644141,
2011-11-22, 03:22:04,VALID,914.77,VALID,0,VALID,96.116,VALID,0,VALID,20.1903,VALID,123,VALID,0.351953,
2011-11-22, 03:23:04,VALID,914.799,VALID,0,VALID,96.116,VALID,0.107441,VALID,20.1888,VALID,123,VALID,0.377734,
2011-11-22, 03:24:04,VALID,914.798,VALID,0,VALID,96.1008,VALID,0,VALID,20.1693,VALID,124,VALID,0.664063,
2011-11-22, 03:25:04,VALID,914.794,VALID,0,VALID,96.1465,VALID,0,VALID,20.1888,VALID,124,VALID,0.714063,
2011-11-22, 03:26:04,VALID,914.81,VALID,0,VALID,96.1313,VALID,0,VALID,20.1888,VALID,124,VALID,0.699219,
2011-11-22, 03:27:04,VALID,914.815,VALID,0,VALID,96.1236,VALID,0,VALID,20.1888,VALID,124,VALID,0.6,
2011-11-22, 03:28:04,VALID,914.791,VALID,0,VALID,96.0779,VALID,0,VALID,20.1888,VALID,125,VALID,0.624609,
2011-11-22, 03:29:04,VALID,914.816,VALID,0,VALID,96.0017,VALID,0,VALID,20.2293,VALID,125,VALID,0.564453,
2011-11-22, 03:30:04,VALID,914.813,VALID,0,VALID,95.9483,VALID,0,VALID,20.2293,VALID,125,VALID,0.327734,
2011-11-22, 03:31:04,VALID,914.824,VALID,0,VALID,95.9483,VALID,0,VALID,20.2489,VALID,125,VALID,0.170312,
2011-11-22, 03:32:04,VALID,914.798,VALID,0,VALID,95.8721,VALID,0,VALID,20.2684,VALID,125,VALID,0,
2011-11-22, 03:33:04,VALID,914.781,VALID,0,VALID,95.8111,VALID,0,VALID,20.2473,VALID,125,VALID,0,
2011-11-22, 03:34:04,VALID,914.79,VALID,0,VALID,95.7349,VALID,0,VALID,20.2489,VALID,125,VALID,0.103906,
2011-11-22, 03:35:04,VALID,914.798,VALID,0,VALID,95.7272,VALID,0,VALID,20.2083,VALID,125,VALID,0,
2011-11-22, 03:36:04,VALID,914.813,VALID,0,VALID,95.7425,VALID,0,VALID,20.1888,VALID,125,VALID,0,
2011-11-22, 03:37:04,VALID,914.782,VALID,0,VALID,95.7806,VALID,0.107441,VALID,20.1888,VALID,125,VALID,0,
2011-11-22, 03:38:04,VALID,914.801,VALID,0,VALID,95.7577,VALID,0,VALID,20.1708,VALID,125,VALID,0,
2011-11-22, 03:39:04,VALID,914.755,VALID,0,VALID,95.773,VALID,0,VALID,20.1303,VALID,125,VALID,0,
2011-11-22, 03:40:04,VALID,914.75,VALID,0,VALID,95.8111,VALID,0,VALID,20.1303,VALID,125,VALID,0,
2011-11-22, 03:41:04,VALID,914.756,VALID,0,VALID,95.8568,VALID,0.107441,VALID,20.1108,VALID,125,VALID,0,
2011-11-22, 03:42:04,VALID,914.708,VALID,0,VALID,95.9407,VALID,0,VALID,20.1108,VALID,125,VALID,0,
2011-11-22, 03:43:04,VALID,914.693,VALID,0,VALID,95.9788,VALID,0,VALID,20.1303,VALID,125,VALID,0,
2011-11-22, 03:44:04,VALID,914.682,VALID,0,VALID,96.0245,VALID,0.107441,VALID,20.1108,VALID,125,VALID,0,